Weather History for Lemoore NAS, CA

Change the Weather History Date:

Friday, December 14, 2012

  Actual Average Record
Temperature  
Mean Temperature 40 °F -  
Max Temperature 50 °F 53 °F 66 °F (2002)
Min Temperature 30 °F 36 °F 27 °F (2007)
Degree Days  
Heating Degree Days 25    
Moisture  
Dew Point 35 °F    
Average Humidity 85    
Maximum Humidity 96    
Minimum Humidity 61    
Precipitation  
Precipitation 0.00 in - - ()
Sea Level Pressure  
Sea Level Pressure 29.93 in    
Wind  
Wind Speed 4 mph (SSW)    
Max Wind Speed 8 mph    
Max Gust Speed -    
Visibility 10 miles    
Events      
Averages and records for this station are not official NWS values.
T = Trace of Precipitation, MM = Missing Value Source: NWS Daily Summary

Daily Weather History Graph

Daily Weather History Graph

Search for Another Location

Airport:

Trip Planner

Search our weather history database for the weather conditions in past years. The results will help you decide how hot, cold, wet, or windy it might be!

Date:

Astronomy

Dec. 14, 2012 Rise Set
Actual Time 7:03 AM PST 4:45 PM PST
Civil Twilight 6:35 AM PST 5:14 PM PST
Nautical Twilight 6:02 AM PST 5:46 PM PST
Astronomical Twilight 5:31 AM PST 6:18 PM PST
Moon 8:14 AM PST (12/14) 6:42 PM PST (12/14)
Length of Visible Light 10h 39m
Length of Day
9h 42m
Waxing Crescent, 3% of the Moon is Illuminated
Dec 14
Waxing Crescent
Dec 19
First Quarter
Dec 28
Full
Jan 4
Last Quarter
Jan 11
New

Hourly Weather History & Observations

Time (PST) Temp. Windchill Dew Point Humidity Pressure Visibility Wind Dir Wind Speed Gust Speed Precip Events Conditions
12:56 AM 33.1 °F 26.9 °F 32.0 °F 96% 29.86 in - West 6.9 mph - N/A   Clear
1:56 AM 33.1 °F 27.7 °F 30.9 °F 92% 29.87 in - West 5.8 mph - N/A   Clear
2:56 AM 32.0 °F 25.6 °F 30.0 °F 92% 29.87 in - WSW 6.9 mph - N/A   Clear
3:56 AM 32.0 °F - 30.9 °F 96% 29.87 in - Calm Calm - N/A   Clear
4:56 AM 32.0 °F - 30.9 °F 96% 29.87 in - Calm Calm - N/A   Clear
5:56 AM 32.0 °F 28.7 °F 30.9 °F 96% 29.88 in - WSW 3.5 mph - N/A   Clear
6:56 AM 30.9 °F 27.5 °F 28.9 °F 92% 29.90 in - SW 3.5 mph - N/A   Clear
7:13 AM 30.2 °F - 28.4 °F 93% 29.89 in 10.0 mi Calm Calm - N/A   Scattered Clouds
7:56 AM 32.0 °F - 30.0 °F 92% 29.91 in 10.0 mi Calm Calm - N/A   Scattered Clouds
8:56 AM 37.0 °F 34.5 °F 33.1 °F 86% 29.92 in 10.0 mi SSE 3.5 mph - N/A   Mostly Cloudy
9:56 AM 42.1 °F 39.2 °F 37.0 °F 82% 29.94 in 10.0 mi South 4.6 mph - N/A   Mostly Cloudy
10:56 AM 46.9 °F - 39.0 °F 74% 29.93 in 10.0 mi SSE 5.8 mph - N/A   Overcast
11:56 AM 48.0 °F - 39.0 °F 71% 29.92 in 10.0 mi SSE 8.1 mph - N/A   Overcast
12:56 PM 50.0 °F - 37.9 °F 63% 29.91 in 10.0 mi SE 5.8 mph - N/A   Overcast
1:56 PM 50.0 °F - 37.0 °F 61% 29.91 in 10.0 mi SE 5.8 mph - N/A   Overcast
2:56 PM 50.0 °F - 37.9 °F 63% 29.92 in 10.0 mi East 5.8 mph - N/A   Overcast
3:56 PM 50.0 °F - 37.0 °F 61% 29.93 in 10.0 mi East 4.6 mph - N/A   Mostly Cloudy
4:56 PM 46.0 °F 44.8 °F 39.0 °F 76% 29.95 in 10.0 mi East 3.5 mph - N/A   Mostly Cloudy
5:56 PM 44.1 °F - 39.9 °F 85% 29.98 in 10.0 mi Calm Calm - N/A   Mostly Cloudy
6:56 PM 44.1 °F - 39.0 °F 82% 29.99 in - Calm Calm - N/A   Overcast
7:56 PM 41.0 °F - 37.9 °F 89% 30.00 in - Calm Calm - N/A   Partly Cloudy
8:56 PM 39.0 °F - 37.0 °F 93% 30.01 in - Calm Calm - N/A   Partly Cloudy
9:56 PM 35.1 °F 30.1 °F 34.0 °F 96% 30.02 in - WSW 5.8 mph - N/A   Clear
10:56 PM 35.1 °F 30.1 °F 34.0 °F 96% 30.03 in - West 5.8 mph - N/A   Mostly Cloudy
11:56 PM 37.0 °F 34.5 °F 36.0 °F 96% 30.04 in - WNW 3.5 mph - N/A   Overcast